Location: Praha
(50.0830°N, 14.4670°E)
Time: 00:14:08
(UTC+02:00)

ISS - Pass Details

Date: 23 April 2024
Orbit: 413 x 419 km, 51.6° (Epoch: 13 April)

Event Time Altitude Azimuth Distance (km) Brightness Sun altitude
Exits shadow 04:44:58 - 191° (S) 1,618 -1.2 -10.4°
Reaches altitude 10° 04:45:25 10° 186° (S) 1,480 -1.4 -10.4°
Maximum altitude 04:47:45 18° 141° (SE) 1,093 -1.6 -10.0°
Drops below altitude 10° 04:50:06 10° 96° (E) 1,486 -0.2 -9.7°
Sets 04:52:38 0° 76° (ENE) 2,351 1.6 -9.4°
